Location: Bli��� Lhota
(48.7570°N, 14.0120°E)
Time: 13:55:20
(UTC+00:00)

USA 116 - Pass Details

Date: 18 September 2020
Orbit: 405 x 834 km, 97.9° (Epoch: 18 November)

Event Time Altitude Azimuth Distance (km) Brightness Sun altitude
Rises 18:16:59 0° 9° (N) 2,416 7.1 -11.8°
Reaches altitude 10° 18:18:56 10° 5° (N) 1,579 6.2 -12.1°
Maximum altitude 18:22:13 54° 287° (WNW) 584 4.3 -12.6°
Drops below altitude 10° 18:25:49 10° 210° (SSW) 1,734 6.4 -13.2°
Sets 18:28:04 0° 206° (SSW) 2,685 7.3 -13.5°
